Wildwood, NJ

11:10 AM EDT on July 24, 2017 (GMT -0400)
Cape May County

Weather History for KWWD - April, 2013

Change the Weather History Date:

Tuesday, April 9, 2013

  Actual Average Record
Temperature  
Mean Temperature 70 °F -  
Max Temperature 82 °F 56 °F 82 °F (2013)
Min Temperature 57 °F 41 °F 35 °F (1997)
Cooling Degree Days 4    
Growing Degree Days 20 (Base 50)    
Moisture  
Dew Point 52 °F    
Average Humidity 58    
Maximum Humidity 77    
Minimum Humidity 37    
Precipitation  
Precipitation 0.00 in - - ()
Sea Level Pressure  
Sea Level Pressure 30.02 in    
Wind  
Wind Speed 11 mph (SW)    
Max Wind Speed 16 mph    
Max Gust Speed 22 mph    
Visibility 10 miles    
Events      
Averages and records for this station are not official NWS values.
T = Trace of Precipitation, MM = Missing Value Source: NWS Daily Summary

Daily Weather History Graph

Daily Weather History Graph

Search for Another Location

Airport or City:

Trip Planner

Search our weather history database for the weather conditions in past years. The results will help you decide how hot, cold, wet, or windy it might be!

Date:

Astronomy

Apr. 09, 2013 Rise Set
Actual Time 6:31 AM EDT 7:31 PM EDT
Civil Twilight 6:04 AM EDT 7:58 PM EDT
Nautical Twilight 5:31 AM EDT 8:31 PM EDT
Astronomical Twilight 4:58 AM EDT 9:04 PM EDT
Moon 5:52 AM EDT (4/9) 7:04 PM EDT (4/9)
Length of Visible Light 13h 54m
Length of Day
12h 59m
Waning Crescent, 1% of the Moon is Illuminated
Apr 9
Waning Crescent
Apr 10
New
Apr 18
First Quarter
Apr 25
Full
May 2
Last Quarter

Hourly Weather History & Observations

Time (EDT) Temp. Heat Index Dew Point Humidity Pressure Visibility Wind Dir Wind Speed Gust Speed Precip Events Conditions
12:15 AM 57.2 °F - 50.0 °F 77% 30.03 in 10.0 mi South 11.5 mph - N/A   Clear
12:35 AM 57.2 °F - 50.0 °F 77% 30.03 in 10.0 mi South 11.5 mph - N/A   Clear
12:55 AM 59.0 °F - 50.0 °F 72% 30.03 in 10.0 mi SSW 11.5 mph - N/A   Clear
1:15 AM 57.2 °F - 50.0 °F 77% 30.02 in 10.0 mi South 11.5 mph - N/A   Clear
1:35 AM 57.2 °F - 50.0 °F 77% 30.01 in 10.0 mi SSW 11.5 mph - N/A   Clear
1:55 AM 59.0 °F - 51.8 °F 77% 30.02 in 10.0 mi SSW 10.4 mph - N/A   Clear
2:15 AM 59.0 °F - 51.8 °F 77% 30.01 in - SSW 10.4 mph - N/A   Clear
2:35 AM 59.0 °F - 51.8 °F 77% 30.01 in 10.0 mi SSW 11.5 mph - N/A   Clear
2:55 AM 60.8 °F - 51.8 °F 72% 30.00 in - SSW 10.4 mph - N/A   Clear
3:15 AM 60.8 °F - 51.8 °F 72% 30.00 in - SSW 11.5 mph - N/A   Clear
3:35 AM 60.8 °F - 51.8 °F 72% 29.99 in - SSW 11.5 mph - N/A   Scattered Clouds
3:55 AM 60.8 °F - 51.8 °F 72% 29.99 in - SSW 10.4 mph - N/A   Scattered Clouds
4:15 AM 60.8 °F - 51.8 °F 72% 29.99 in - SSW 12.7 mph - N/A   Scattered Clouds
4:35 AM 60.8 °F - 51.8 °F 72% 30.00 in - SSW 10.4 mph - N/A   Overcast
4:55 AM 62.6 °F - 51.8 °F 68% 30.00 in - SSW 10.4 mph 16.1 mph N/A   Overcast
5:15 AM 64.4 °F - 51.8 °F 64% 30.01 in - SW 12.7 mph - N/A   Scattered Clouds
5:35 AM 64.4 °F - 51.8 °F 64% 30.01 in - WSW 9.2 mph 21.9 mph N/A   Mostly Cloudy
5:55 AM 62.6 °F - 51.8 °F 68% 30.02 in - SW 11.5 mph 16.1 mph N/A   Mostly Cloudy
6:15 AM 62.6 °F - 51.8 °F 68% 30.02 in - SW 11.5 mph - N/A   Scattered Clouds
6:35 AM 62.6 °F - 51.8 °F 68% 30.03 in - SW 10.4 mph - N/A   Mostly Cloudy
6:55 AM 62.6 °F - 51.8 °F 68% 30.04 in - SW 10.4 mph - N/A   Overcast
7:15 AM 62.6 °F - 50.0 °F 63% 30.05 in - SW 10.4 mph - N/A   Overcast
7:35 AM 62.6 °F - 50.0 °F 63% 30.05 in - SW 9.2 mph - N/A   Scattered Clouds
7:55 AM 62.6 °F - 51.8 °F 68% 30.06 in - SW 11.5 mph - N/A   Clear
8:15 AM 64.4 °F - 51.8 °F 64% 30.06 in - SW 11.5 mph 17.3 mph N/A   Clear
8:35 AM 64.4 °F - 51.8 °F 64% 30.06 in - SW 12.7 mph - N/A   Clear
8:55 AM 64.4 °F - 51.8 °F 64% 30.06 in - WSW 13.8 mph 18.4 mph N/A   Clear
9:15 AM 66.2 °F - 51.8 °F 60% 30.06 in - WSW 16.1 mph - N/A   Clear
9:35 AM 66.2 °F - 51.8 °F 60% 30.06 in - WSW 12.7 mph 19.6 mph N/A   Clear
9:55 AM 68.0 °F - 53.6 °F 60% 30.07 in - WSW 15.0 mph - N/A   Clear
10:15 AM 69.8 °F - 53.6 °F 56% 30.07 in - WSW 16.1 mph 19.6 mph N/A   Clear
10:35 AM 71.6 °F - 53.6 °F 53% 30.07 in - WSW 16.1 mph - N/A   Clear
10:55 AM 71.6 °F - 53.6 °F 53% 30.07 in - WSW 12.7 mph - N/A   Clear
11:15 AM 73.4 °F - 53.6 °F 50% 30.07 in - WSW 12.7 mph 19.6 mph N/A   Clear
11:35 AM 75.2 °F - 53.6 °F 47% 30.06 in - WSW 13.8 mph - N/A   Clear
11:55 AM 75.2 °F - 53.6 °F 47% 30.06 in - WSW 15.0 mph - N/A   Clear
12:15 PM 75.2 °F - 53.6 °F 47% 30.05 in - WSW 13.8 mph - N/A   Clear
12:35 PM 77.0 °F - 53.6 °F 44% 30.05 in - WSW 12.7 mph - N/A   Clear
12:55 PM 77.0 °F - 53.6 °F 44% 30.04 in - WSW 12.7 mph - N/A   Clear
1:15 PM 78.8 °F - 55.4 °F 44% 30.04 in - West 10.4 mph 16.1 mph N/A   Clear
1:35 PM 78.8 °F - 55.4 °F 44% 30.03 in - WSW 10.4 mph - N/A   Clear
1:55 PM 78.8 °F - 53.6 °F 42% 30.03 in - West 9.2 mph - N/A   Clear
2:15 PM 78.8 °F - 53.6 °F 42% 30.03 in - WNW 9.2 mph - N/A   Clear
2:35 PM 78.8 °F - 53.6 °F 42% 30.02 in - West 6.9 mph - N/A   Clear
2:55 PM 80.6 °F 80.3 °F 53.6 °F 39% 30.02 in - West 9.2 mph - N/A   Clear
3:15 PM 80.6 °F 80.3 °F 53.6 °F 39% 30.01 in - West 11.5 mph - N/A   Clear
3:35 PM 80.6 °F 80.3 °F 53.6 °F 39% 30.01 in - WSW 11.5 mph - N/A   Clear
3:55 PM 80.6 °F 80.3 °F 53.6 °F 39% 30.00 in - WSW 8.1 mph - N/A   Clear
4:15 PM 80.6 °F 80.3 °F 53.6 °F 39% 29.99 in - West 9.2 mph - N/A   Clear
4:35 PM 80.6 °F 80.3 °F 53.6 °F 39% 29.99 in - WSW 10.4 mph - N/A   Clear
4:55 PM 82.4 °F 81.4 °F 53.6 °F 37% 29.99 in - SSW 9.2 mph - N/A   Clear
5:15 PM 80.6 °F 80.5 °F 55.4 °F 42% 29.99 in - South 8.1 mph - N/A   Clear
5:35 PM 77.0 °F - 53.6 °F 44% 30.00 in - SSE 9.2 mph - N/A   Clear
5:55 PM 75.2 °F - 53.6 °F 47% 30.00 in - South 6.9 mph - N/A   Clear
6:15 PM 75.2 °F - 53.6 °F 47% 29.99 in - SSE 8.1 mph - N/A   Clear
6:35 PM 73.4 °F - 53.6 °F 50% 30.00 in - SSE 4.6 mph - N/A   Clear
6:55 PM 71.6 °F - 51.8 °F 50% 30.00 in - SSE 4.6 mph - N/A   Clear
7:15 PM 71.6 °F - 51.8 °F 50% 29.99 in - South 5.8 mph - N/A   Clear
7:35 PM 69.8 °F - 51.8 °F 53% 30.00 in - SSW 5.8 mph - N/A   Clear
7:55 PM 68.0 °F - 51.8 °F 56% 30.00 in - SSW 6.9 mph - N/A   Clear
8:15 PM 69.8 °F - 51.8 °F 53% 30.01 in - SSW 6.9 mph - N/A   Clear
8:35 PM 69.8 °F - 51.8 °F 53% 30.02 in - South 8.1 mph - N/A   Clear
8:55 PM 66.2 °F - 50.0 °F 56% 30.02 in - South 8.1 mph - N/A   Clear
9:15 PM 66.2 °F - 50.0 °F 56% 30.02 in - South 6.9 mph - N/A   Clear
9:35 PM 66.2 °F - 51.8 °F 60% 30.02 in - South 8.1 mph - N/A   Clear
9:55 PM 64.4 °F - 51.8 °F 64% 30.02 in - South 8.1 mph - N/A   Clear
10:15 PM 64.4 °F - 51.8 °F 64% 30.02 in - South 10.4 mph - N/A   Clear
10:55 PM 66.2 °F - 48.2 °F 52% 30.00 in - South 10.4 mph - N/A   Clear
11:15 PM 64.4 °F - 50.0 °F 59% 29.99 in - South 10.4 mph - N/A   Clear
11:35 PM 64.4 °F - 51.8 °F 64% 29.98 in - South 9.2 mph - N/A   Clear
11:55 PM 62.6 °F - 51.8 °F 68% 29.97 in - South 10.4 mph - N/A   Clear